Change the Weather History Date:

Tuesday, September 18, 2012

  Actual Average Record
Temperature  
Mean Temperature 78 °F 82 °F  
Max Temperature 81 °F 89 °F 95 °F (1960)
Min Temperature 75 °F 74 °F 62 °F (1981)
Degree Days  
Heating Degree Days 0 0  
Month to date heating degree days 0 0  
Since 1 July heating degree days 0 0  
Cooling Degree Days 13 17  
Month to date cooling degree days 314 314  
Year to date cooling degree days 3234 2829  
Growing Degree Days 28 (Base 50)    
Moisture  
Dew Point 73 °F    
Average Humidity 87    
Maximum Humidity 94    
Minimum Humidity 79    
Precipitation  
Precipitation 0.78 in 0.21 in 3.57 in (1947)
Month to date precipitation 5.13 4.26  
Year to date precipitation 50.09 37.98  
Sea Level Pressure  
Sea Level Pressure 29.92 in    
Wind  
Wind Speed 8 mph (SSW)    
Max Wind Speed 23 mph    
Max Gust Speed 28 mph    
Visibility 8 miles    
Events Fog , Rain , Thunderstorm    
T = Trace of Precipitation, MM = Missing Value Source: NWS Daily Summary

Daily Weather History Graph

Daily Weather History Graph

Search for Another Location

Airport or City:

Trip Planner

Search our weather history database for the weather conditions in past years. The results will help you decide how hot, cold, wet, or windy it might be!

Date:

Astronomy

Sep. 18, 2012 Rise Set
Actual Time 7:16 AM EDT 7:30 PM EDT
Civil Twilight 6:53 AM EDT 7:54 PM EDT
Nautical Twilight 6:26 AM EDT 8:21 PM EDT
Astronomical Twilight 5:58 AM EDT 8:49 PM EDT
Moon 9:54 AM EDT (9/18) 9:15 PM EDT (9/18)
Length of Visible Light 13h 00m
Length of Day
12h 13m
Waxing Crescent, 9% of the Moon is Illuminated
Sep 18
Waxing Crescent
Sep 22
First Quarter
Sep 29
Full
Oct 8
Last Quarter
Oct 15
New

Hourly Weather History & Observations

Time (EDT) Temp. Heat Index Dew Point Humidity Pressure Visibility Wind Dir Wind Speed Gust Speed Precip Events Conditions
12:53 AM 79.0 °F - 73.9 °F 84% 29.94 in 10.0 mi SE 5.8 mph - N/A   Scattered Clouds
1:53 AM 78.1 °F - 73.0 °F 84% 29.93 in 10.0 mi SSE 5.8 mph - N/A   Partly Cloudy
2:53 AM 78.1 °F - 73.9 °F 87% 29.91 in 10.0 mi SSE 6.9 mph - N/A   Scattered Clouds
3:53 AM 78.1 °F - 73.9 °F 87% 29.90 in 10.0 mi South 6.9 mph - N/A   Scattered Clouds
4:53 AM 77.0 °F - 73.9 °F 90% 29.89 in 10.0 mi South 9.2 mph - N/A   Scattered Clouds
5:29 AM 77.0 °F - 73.4 °F 89% 29.90 in 10.0 mi SSE 6.9 mph - N/A   Mostly Cloudy
5:53 AM 78.1 °F - 73.9 °F 87% 29.89 in 10.0 mi South 5.8 mph - N/A   Mostly Cloudy
6:17 AM 78.8 °F - 73.4 °F 83% 29.90 in 10.0 mi South 8.1 mph - N/A   Mostly Cloudy
6:47 AM 78.8 °F - 73.4 °F 83% 29.89 in 10.0 mi SSE 6.9 mph - N/A   Partly Cloudy
6:53 AM 78.1 °F - 73.9 °F 87% 29.90 in 10.0 mi SSE 6.9 mph - N/A   Scattered Clouds
7:53 AM 78.1 °F - 75.0 °F 90% 29.91 in 10.0 mi South 3.5 mph - 0.01 in   Mostly Cloudy
8:01 AM 78.8 °F - 75.2 °F 89% 29.92 in 0.8 mi SW 10.4 mph - 0.00 in Rain Light Rain
8:04 AM 78.8 °F - 75.2 °F 89% 29.92 in 0.5 mi SW 9.2 mph - 0.12 in Fog , Rain , Thunderstorm Heavy Thunderstorms and Rain
8:09 AM 75.2 °F - 73.4 °F 94% 29.91 in 0.2 mi South 12.7 mph - 0.34 in Fog , Rain , Thunderstorm Heavy Thunderstorms and Rain
8:15 AM 75.2 °F - 73.4 °F 94% 29.91 in 1.0 mi South 9.2 mph - 0.49 in Rain , Thunderstorm Thunderstorms and Rain
8:18 AM 77.0 °F - 73.4 °F 89% 29.91 in 3.0 mi South 10.4 mph - 0.49 in Rain , Thunderstorm Light Thunderstorms and Rain
8:27 AM 78.8 °F - 73.4 °F 83% 29.91 in 10.0 mi South 9.2 mph - 0.49 in Rain Light Rain
8:53 AM 80.1 °F 85.4 °F 75.9 °F 87% 29.92 in 10.0 mi South 8.1 mph - 0.49 in   Mostly Cloudy
9:53 AM 79.0 °F - 73.9 °F 84% 29.92 in 10.0 mi SSE 4.6 mph - 0.02 in   Mostly Cloudy
10:36 AM 75.2 °F - 71.6 °F 89% 29.94 in 3.0 mi South 10.4 mph 23.0 mph 0.03 in Rain , Thunderstorm Light Thunderstorms and Rain
10:53 AM 79.0 °F - 73.9 °F 84% 29.94 in 10.0 mi SSW 9.2 mph - 0.03 in   Mostly Cloudy
11:00 AM 78.8 °F - 73.4 °F 83% 29.94 in 10.0 mi South 13.8 mph 21.9 mph N/A Thunderstorm Thunderstorm
11:53 AM 77.0 °F - 71.1 °F 82% 29.95 in 10.0 mi South 19.6 mph 27.6 mph N/A Thunderstorm Thunderstorm
12:53 PM 75.9 °F - 71.1 °F 85% 29.95 in 10.0 mi South 9.2 mph - 0.02 in   Mostly Cloudy
1:00 PM 77.0 °F - 71.6 °F 83% 29.95 in 10.0 mi SSW 11.5 mph - N/A Thunderstorm Thunderstorm
1:53 PM 77.0 °F - 72.0 °F 84% 29.95 in 5.0 mi West 12.7 mph 23.0 mph 0.02 in Rain Light Rain
2:00 PM 75.2 °F - 71.6 °F 89% 29.95 in 4.0 mi WNW 9.2 mph 19.6 mph 0.00 in Rain Light Rain
2:09 PM 75.2 °F - 71.6 °F 89% 29.95 in 4.0 mi NW 8.1 mph - 0.05 in Rain Light Rain
2:19 PM 75.2 °F - 73.4 °F 94% 29.95 in 3.0 mi WNW 12.7 mph 21.9 mph 0.07 in Rain Light Rain
2:47 PM 77.0 °F - 71.6 °F 83% 29.93 in 5.0 mi West 9.2 mph 19.6 mph 0.17 in Rain Light Rain
2:53 PM 75.9 °F - 70.0 °F 82% 29.91 in 5.0 mi West 8.1 mph 19.6 mph 0.17 in Rain Light Rain
3:53 PM 75.9 °F - 73.0 °F 91% 29.92 in 10.0 mi SW 5.8 mph - 0.02 in   Overcast
4:53 PM 79.0 °F - 72.0 °F 79% 29.91 in 10.0 mi WSW 4.6 mph - N/A   Overcast
5:53 PM 79.0 °F - 71.1 °F 77% 29.90 in 10.0 mi South 5.8 mph - N/A   Overcast
6:53 PM 78.1 °F - 73.0 °F 84% 29.89 in 10.0 mi SSE 3.5 mph - N/A   Overcast
7:53 PM 77.0 °F - 73.9 °F 90% 29.90 in 10.0 mi South 4.6 mph - N/A   Overcast
8:03 PM 77.0 °F - 73.4 °F 89% 29.90 in 10.0 mi South 5.8 mph - N/A   Overcast
8:20 PM 77.0 °F - 73.4 °F 89% 29.92 in 10.0 mi SSE 6.9 mph - 0.00 in Rain Light Rain
8:27 PM 77.0 °F - 73.4 °F 89% 29.92 in 10.0 mi SSE 8.1 mph - 0.00 in Rain Light Rain
8:38 PM 77.0 °F - 73.4 °F 89% 29.92 in 10.0 mi South 8.1 mph - 0.00 in Rain Light Rain
8:53 PM 77.0 °F - 75.0 °F 94% 29.93 in 10.0 mi South 6.9 mph - 0.00 in   Overcast
9:34 PM 78.8 °F - 75.2 °F 89% 29.95 in 10.0 mi SSW 8.1 mph - 0.00 in Rain Light Rain
9:48 PM 78.8 °F - 73.4 °F 83% 29.95 in 10.0 mi SSW 10.4 mph - 0.00 in Rain Light Rain
9:53 PM 78.1 °F - 73.9 °F 87% 29.96 in 10.0 mi SSW 10.4 mph - 0.00 in Rain Light Rain
10:53 PM 79.0 °F - 73.9 °F 84% 29.95 in 10.0 mi SSW 9.2 mph - 0.00 in   Overcast
11:53 PM 79.0 °F - 73.0 °F 82% 29.93 in 10.0 mi SW 10.4 mph - N/A   Overcast